Location: Gwatt
(46.7204°N, 7.6223°E)
Time: 09:32:45
(UTC+00:00)

Daily predictions for brighter satellites

Satellite Brightness Start Highest point End
(mag) Time Altitude Azimuth Time Altitude Azimuth Time Altitude Azimuth
Tsikada Rocket 4.1 17:56:43 10° N 18:02:55 86° W 18:09:05 10° S
Cosmos 1844 Rocket 4.3 18:01:26 10° ESE 18:03:16 12° E 18:05:06 10° ENE
CZ-2C R/B 3.2 17:58:39 10° SSE 18:03:47 62° ENE 18:09:15 10° N
Cosmos 1378 Rocket 4.1 17:59:34 10° NNW 18:03:51 65° W 18:08:07 10° S
SJ 16-02 1.6 17:59:33 10° SSW 18:03:55 76° WNW 18:08:20 10° NNE
Cosmos 990 Rocket 4.0 17:59:08 10° S 18:04:13 66° ESE 18:09:20 10° NNE
Cosmos 2227 4.3 17:59:09 10° S 18:04:47 61° ESE 18:10:25 10° NNE
ISS -1.9 18:03:30 10° S 18:05:39 16° SE 18:07:49 10° E
Abrixas rocket 1.8 18:05:14 10° WSW 18:08:04 81° SSE 18:10:55 10° ENE
Okean 2 Rocket 4.4 18:05:58 10° SE 18:09:19 21° E 18:12:40 10° NE
SJ-11-01 4.4 18:05:31 10° SSE 18:10:08 56° ENE 18:14:45 10° N
Cosmos 1943 3.2 18:04:32 10° NNW 18:10:12 71° ENE 18:15:51 10° SE
NOSS 8 (F) 4.2 18:07:30 10° SW 18:10:47 89° WNW 18:13:48 10° NE
Helios 1A Rocket 4.4 18:07:49 10° S 18:11:43 42° W 18:15:40 10° NNW
Cosmos 1939 Rocket 4.3 18:08:05 10° S 18:12:02 45° W 18:16:02 10° NNW
Okean-O 3.3 18:07:59 10° S 18:12:21 61° WSW 18:16:46 10° NNW
Lacrosse 5 rocket 2.7 18:08:45 10° W 18:12:45 41° NNW 18:16:59 10° NE
Ariane Rocket 3.9 18:11:21 10° ESE 18:15:42 30° ENE 18:20:06 10° N
Cosmos 1437 2.5 18:15:21 10° N 18:18:20 64° ENE 18:21:17 10° SSE
NOSS 2-2 (C) 4.0 18:16:57 10° S 18:19:59 28° ESE 18:23:13 10° ENE
Meteor 1-21 4.2 18:15:37 10° N 18:21:15 74° ENE 18:26:49 10° SSE
USA 116 3.4 18:19:37 10° NNE 18:23:01 80° ESE 18:26:46 10° S
CSL-04 Debris 4.2 18:18:07 10° SSE 18:23:31 89° E 18:28:57 10° NNW
GP-B 4.1 18:20:26 10° N 18:24:46 53° W 18:29:05 10° SSW
YAOGAN 1 3.3 18:23:42 10° S 18:27:58 58° W 18:32:15 10° NNW
Cosmos 1603 4.0 18:23:57 10° NNW 18:29:38 74° WSW 18:35:13 10° SSE
HJ-1C 3.3 18:27:06 10° SSE 18:30:23 88° ENE 18:33:42 10° NNW
Cosmos 1898 Rocket 3.6 18:26:10 10° SSW 18:31:20 82° WNW 18:36:33 10° NNE
CSL-04 Rocket 3.8 18:27:50 10° SSE 18:33:15 81° WSW 18:38:46 10° NNW
Cosmos 1867 3.7 18:28:12 10° NNW 18:33:40 64° NE 18:38:36 12° SE
Okean 2 4.0 18:30:31 10° NNW 18:34:40 62° W 18:38:45 10° S
Cosmos 1536 Rocket 4.4 18:34:28 10° N 18:38:24 30° ENE 18:41:16 16° SE
USA 234 3.9 18:36:48 10° ENE 18:42:33 32° SE 18:48:17 10° S
CREW DRAGON DEMO-1 DEB 4.3 18:43:14 10° WNW 18:45:59 30° N 18:47:59 15° NE
Cosmos 1782 Rocket 4.1 18:44:19 10° SSW 18:48:41 64° W 18:53:07 10° N
Cosmos 1975 4.0 18:45:52 10° SSW 18:49:48 46° WNW 18:53:45 10° N
CZ-4 R/B 3.7 18:46:38 10° SSW 18:50:16 28° W 18:53:55 10° NW
Cosmos 2151 Rocket 4.1 18:46:15 10° SSE 18:50:20 37° E 18:54:29 10° NNE
Cosmos 372 Rocket 4.1 18:45:23 10° S 18:50:28 54° ESE 18:55:35 10° NNE
USA 186 1.7 18:48:48 18° SSE 18:50:56 57° ENE 18:54:06 10° N
Cosmos 1025 Rocket 3.2 18:48:13 10° N 18:52:31 53° ENE 18:56:09 14° SSE
Cosmos 1072 Rocket 4.4 18:49:52 10° S 18:56:04 74° E 19:02:24 10° NNE
Nadezhda 4 Rocket 4.1 18:53:17 10° N 18:59:18 55° ENE 19:04:42 13° SSE
Cosmos 1937 Rocket 4.0 18:55:50 10° SSW 19:01:03 64° WNW 19:06:15 10° NNE
OBJECT-B 1.7 19:01:23 29° ENE 19:01:27 30° ENE 19:04:20 10° N
Cosmos 2082 Rocket 4.4 19:01:10 10° NNE 19:02:03 10° NNE 19:02:57 10° NE
Cosmos 2034 Rocket 4.1 18:56:09 10° SSE 19:02:19 55° E 19:08:30 10° NNE
Cosmos 1125 Rocket 4.2 18:59:23 10° SSE 19:03:59 31° E 19:08:36 10° NE
MOS 1 Rocket 3.4 18:59:34 10° N 19:04:04 70° WNW 19:08:21 10° SSW
CZ-2C R/B 3.2 19:03:19 10° SSW 19:04:36 12° S 19:04:39 12° S
Exosat Rocket 4.3 19:00:19 10° SSE 19:05:17 31° ESE 19:09:41 10° NE
FREGAT/IRIS 2.2 19:05:31 58° E 19:05:32 58° ENE 19:08:07 10° N
Cosmos 1674 3.3 19:05:41 10° N 19:09:17 36° ENE 19:09:42 35° E
In-Cosmos 22 4.0 19:11:04 10° NNW 19:16:23 89° W 19:21:24 12° S
NOSS 2-2 (E) 3.6 19:13:42 10° SW 19:17:10 62° NW 19:21:10 10° NE
Resurs 01 Rocket 2.3 19:19:17 34° E 19:19:47 35° ENE 19:23:50 10° N
H-2A R/B 3.4 19:15:44 10° SSW 19:20:18 37° W 19:25:00 10° NNW
ARGOS 4.0 19:16:13 10° S 19:21:24 50° W 19:26:39 10° NNW
Cosmos 1707 3.6 19:18:05 10° NNW 19:21:48 48° W 19:25:29 10° SSW
ATLAS 2AS CENTAUR R/B 4.2 19:15:43 10° SSE 19:24:48 21° ENE 19:28:05 10° ENE
SJ-6B 2.7 19:21:47 27° S 19:23:42 77° W 19:27:28 10° NNW
CZ-2C R/B 2.6 19:19:02 10° NNE 19:24:35 83° ESE 19:30:12 10° SSW
NOSS 2-2 (D) 3.5 19:22:08 10° SW 19:25:36 64° NW 19:29:33 10° NE
KORONAS-FOTON 3.9 19:23:05 10° N 19:26:58 56° ENE 19:27:14 55° E
MOS 1 4.4 19:23:05 13° SSE 19:28:09 80° WSW 19:33:54 10° NNW
Cosmos 1174 4.5 19:24:21 10° SSW 19:29:13 68° ESE 19:35:24 10° NE
Cosmos 1048 Rocket 3.9 19:26:30 10° NNW 19:31:51 84° ENE 19:34:10 35° SSE
Cosmos 1844 3.8 19:28:44 10° S 19:34:14 52° ESE 19:39:43 10° NE
CENTAUR R/B 3.3 19:26:24 10° NW 19:34:19 65° NE 19:38:32 33° ESE
Cosmos 1634 Rocket 4.2 19:34:23 37° SE 19:35:59 45° E 19:41:49 10° NNE
ARIANE 5 R/B 3.7 19:37:43 29° NE 19:37:43 29° NE 19:40:55 10° N
Cosmos 2263 Rocket 4.0 19:34:24 10° WSW 19:39:21 32° NW 19:44:22 10° NNE
ATLAS 3B R/B 3.8 19:34:02 10° NNW 19:40:05 32° NNE 19:42:49 25° ENE
Cosmos 2285 Rocket 4.0 19:34:24 10° S 19:40:31 56° ESE 19:46:43 10° NNE
ISS -3.1 19:38:41 10° WSW 19:41:14 49° WSW 19:41:14 49° WSW
USA 238 DEB 3.8 19:34:57 10° NW 19:42:13 89° NE 19:45:38 36° SE
USA 238 3.8 19:35:04 10° NW 19:42:19 88° NE 19:45:43 36° SE
Abrixas rocket 3.5 19:40:38 10° W 19:42:31 35° WNW 19:42:31 35° WNW
Cosmos 1844 Rocket 2.5 19:40:36 10° SSW 19:46:10 78° ESE 19:51:46 10° NNE
Okean 2 Rocket 4.4 19:42:50 10° SSW 19:47:06 42° WNW 19:51:23 10° N
Spot 2 Rocket 4.3 19:48:07 34° ENE 19:48:07 34° ENE 19:52:19 10° N
Okean 1 Rocket 2.9 19:51:22 76° E 19:51:22 76° E 19:55:50 10° NNE
Cosmos 1627 Rocket 4.5 19:45:13 10° N 19:51:37 68° E 19:53:33 46° SE
Lacrosse 5 rocket 3.6 19:49:27 10° WNW 19:52:54 22° N 19:55:13 15° NE
Ariane Rocket 4.2 19:49:58 11° SSW 19:54:33 39° W 19:59:19 10° NNW
Cosmos 1092 Rocket 3.9 19:51:34 10° N 19:57:46 89° WSW 20:00:15 39° S
Meteor 1-15 Rocket 4.3 19:52:51 10° SSW 19:58:28 78° W 20:04:12 10° N
Resurs 1-3 3.9 19:57:57 53° SSW 19:58:44 65° WSW 20:03:08 10° NNW
Cosmos 2195 Rocket 4.4 19:54:46 10° N 20:01:06 86° E 20:03:07 46° SSE
Cosmos 494 Rocket 4.0 19:59:34 10° NNW 20:04:51 80° WSW 20:05:36 65° S
SPOT 3 Rocket 3.7 20:03:38 47° SSW 20:05:03 69° WSW 20:10:12 10° NNW
Cosmos 2026 Rocket 3.9 19:58:55 10° N 20:05:19 81° E 20:06:56 53° SSE
CZ-2C R/B 3.6 20:01:22 10° NNE 20:05:30 76° N 20:05:30 76° N
Cosmos 1833 Rocket 3.6 20:02:44 10° NNW 20:07:46 34° NE 20:07:46 34° NE
NOSS 3-2 (A) 4.3 20:03:00 10° NW 20:10:29 65° WSW 20:13:57 37° S
Terra 3.7 20:19:12 19° NNE 20:19:12 19° NNE 20:21:09 10° NNE
Cosmos 1428 Rocket 4.4 20:11:20 10° N 20:17:39 88° W 20:18:50 62° S
Cosmos 1626 3.9 20:15:58 10° NNW 20:17:51 28° NNW 20:17:51 28° NNW
Cosmos 2279 Rocket 4.1 20:20:51 58° ENE 20:20:51 58° ENE 20:26:23 10° NNE
Cosmos 2142 Rocket 4.3 20:21:19 72° E 20:21:24 72° E 20:27:37 10° NNE
USA 234 3.2 20:19:26 10° NE 20:26:00 85° NNW 20:32:35 10° WSW
Meteor 2-5 Rocket 4.1 20:24:04 10° NNW 20:29:35 58° W 20:30:35 51° SW
OBJECT-B 3.8 20:34:35 15° WNW 20:34:35 15° WNW 20:35:59 10° NW
SPOT 5 4.1 20:40:09 36° NNE 20:40:09 36° NNE 20:43:33 10° N
NOSS 3-2 (C) 4.3 20:37:10 10° NW 20:44:38 62° WSW 20:46:11 53° SSW
Cosmos 2082 Rocket 3.3 20:42:33 10° NNW 20:46:33 35° NNE 20:46:33 35° NNE
ERS-1 Rocket 4.2 20:57:24 37° N 20:57:24 37° N 21:00:26 10° N
COSMOS 2406 3.7 20:49:49 10° NNW 20:54:20 58° NNW 20:54:20 58° NNW
Resurs 01 Rocket 3.5 20:56:51 26° W 20:56:51 26° W 21:00:06 10° NW
Meteor 1-24 Rocket 4.5 20:51:10 10° NNW 20:56:22 45° W 20:56:22 45° W
Cosmos 2098 Rocket 4.2 20:57:25 10° N 21:03:50 71° N 21:03:50 71° N
Lacrosse 4 Rocket 4.0 21:01:14 10° NNW 21:02:11 16° N 21:02:11 16° N
ATLAS 2AS CENTAUR R/B 2.9 21:04:08 10° SW 21:12:07 86° NW 21:20:03 10° NE
Cosmos 1655 Rocket 4.4 21:07:20 10° NNW 21:12:30 61° NNW 21:12:30 61° NNW
Cosmos 2278 Rocket 4.3 21:22:33 17° NNE 21:22:33 17° NNE 21:23:49 10° NNE
CENTAUR R/B 3.9 21:17:25 10° NW 21:25:00 42° WSW 21:25:44 41° SW
ATLAS 3B R/B 3.1 21:24:35 10° NW 21:30:03 60° NW 21:30:03 60° NW
Lacrosse 5 rocket 4.2 21:29:22 10° NW 21:30:50 18° NNW 21:30:50 18° NNW
Cosmos 1833 Rocket 4.4 21:46:36 10° NW 21:49:28 28° NW 21:49:28 28° NW
Terra 4.3 21:58:06 19° NNW 21:58:06 19° NNW 21:59:29 10° NNW
USA 234 4.2 22:02:33 10° NE 22:08:38 43° NNW 22:14:43 10° W
Cosmos 2082 Rocket 4.5 22:26:46 10° NW 22:28:23 18° NW 22:28:23 18° NW
ATLAS 2AS CENTAUR R/B 4.3 22:59:08 18° W 23:04:11 33° NNW 23:11:05 10° NE
USA 234 4.5 23:44:56 10° ENE 23:54:27 21° NW 23:56:39 10° WNW
